Powrót do katalogu

SHIYAN 32-02

AktywnyNaukaVLEO
NORAD 66378·PAYLOAD·🇨🇳 China

Wystrzelony Nov 8, 2025 z Yellow Sea Launch Area

Loading…

Następne Przeloty (najbliższe 24 godziny)

TLE

ŚwieżeSource: Space-Track

Epoka: Sep 14, 2026, 14:33 UTC

1 66378U 25255C   26257.60693038  .00012752  00000-0  30493-3 0  9995
2 66378  52.9927 309.9975 0016595 135.0183 225.2168 15.41744901 47750

Śledź SHIYAN 32-02 w czasie rzeczywistym z AllMySat

Download on the App Store